Flag for Australia Weather past 2 weeks in Currie, Tasmania, Australia

Now
59 °F

Cool.


Feels Like: 55 °F
Forecast: 55 / 62 °F
Wind: 22 mph from Northwest

Location: King Island Airport


UV Index: 0 (Low)

Visibility: N/A


Pressure: 29.88 "Hg

Humidity: 74%

Dew point: 51 °F

Location of CurrieLocation

Historic Weather in Currie

°F

Currie temperature yesterday

Maximum temperature yesterday: 64 °F (at 1:00 AM)
Minimum temperature yesterday: 55 °F (at 6:00 PM)
Average temperature yesterday: 59 °F

Past Weeks' High & Low Weather Summary

 TemperatureHumidityPressure
High67 °F (Apr 16, 1:00 PM)100% (Apr 9, 3:00 AM)30.27 "Hg (Apr 9, 3:00 AM)
Low47 °F (Apr 15, 4:00 AM)53% (Apr 13, 1:00 PM)29.77 "Hg (Apr 21, 7:00 PM)
Average58 °F84%30.06 "Hg
* Reported Apr 8 4:00 PM — Apr 23 4:00 PM, Currie, Weather by CustomWeather, © 2014

Note: Actual official high and low records may vary slightly from our data, if they occured in-between our weather recording intervals... More about our weather records

Advertising

Historic Weather Conditions — Data for Previous 24 hours

 ConditionsComfort  
Time TempWeatherWind HumidityBarometerVisibility
4:00 PM
Apr 23
59 °FCool.22 mph74%29.88 "HgN/A
3:00 PM60 °FScattered clouds.21 mph72%29.88 "HgN/A
1:00 PM61 °FCool.21 mph62%29.91 "HgN/A
12:00 PM59 °FCool.20 mph61%29.94 "HgN/A
10:00 AM60 °FCool.16 mph71%29.98 "HgN/A
9:00 AM56 °FPassing clouds.3 mph95%29.98 "HgN/A
7:00 AM50 °FCool.3 mph98%29.98 "HgN/A
6:00 AM49 °FOvercast.6 mph99%29.98 "HgN/A
4:00 AM48 °FCool.1 mph96%29.98 "HgN/A
3:00 AM51 °FOvercast.5 mph94%29.98 "HgN/A
1:00 AM54 °FCool.2 mph95%30.01 "HgN/A
12:00 AM54 °FCool.6 mph88%30.02 "HgN/A
10:00 PM
Apr 22
56 °FCool.9 mph72%30.03 "HgN/A
9:00 PM56 °FPassing clouds.10 mph76%30.02 "HgN/A
7:00 PM57 °FCool.10 mph84%30.00 "HgN/A
6:00 PM55 °FOvercast.8 mph87%29.98 "HgN/A
Weather by CustomWeather, © 2014

See weather overview